Hourly Data Report for October 03, 2017

All times are specified in Local Standard Time (LST). Add 1 hour to adjust for Daylight Saving Time where and when it is observed.

PETAWAWA AWOS 2
ONTARIO

45°57'00.000" N
77°19'00.000" W
130.10 m
6106396
71625
YWA

Download Data

Hourly Data (October 2017)
Hourly Data Report for October 3, 2017
Temp Definition
°C
Dew Point Temp Definition
°C
Rel Hum Definition
%
Wind Dir Definition
10's deg

Wind Spd Definition
km/h
Visibility Definition
km
Stn Press Definition
kPa
Hmdx Definition


Wind Chill Definition


Weather Definition


TIME
00:00 12.6 9.7 82 12 7 14.5 101.49     LegendNANA
01:00 12.3 9.7 84 15 9 14.5 101.46     LegendNANA
02:00 9.0 7.2 88 20 4 14.5 101.50     LegendNANA
03:00 5.5 4.9 96   0 14.5 101.53     LegendNANA
04:00 5.6 5.1 97 23 4 14.5 101.54     LegendNANA
05:00 4.1 3.6 96   0 14.5 101.53     LegendNANA
06:00 6.2 5.9 98 18 4 14.5 101.54     LegendNANA
07:00 7.5 6.9 96 19 6 14.5 101.56     LegendNANA
08:00 11.2 9.3 88 14 9 14.5 101.59     LegendNANA
09:00 12.5 9.8 84 13 13 14.5 101.53     LegendNANA
10:00 14.4 10.6 78 12 15 14.5 101.47     LegendNANA
11:00 15.8 11.4 75 11 13 14.5 101.40     LegendNANA
12:00 18.2 12.2 68 12 11 14.5 101.37     LegendNANA
13:00 20.4 13.2 63 12 15 14.5 101.25     LegendNANA
14:00 22.3 13.3 57 14 13 14.5 101.15 25   LegendNANA
15:00 24.8 9.1 37 16 17 14.5 101.08 26   LegendNANA
16:00 24.6 8.8 37 20 17 14.5 101.02 25   LegendNANA
17:00 22.9 9.7 43 18 11 14.5 100.99     LegendNANA
18:00 19.7 10.1 54 17 7 14.5 100.99     LegendNANA
19:00 19.4 9.9 54 16 7 14.5 100.98     LegendNANA
20:00 18.5 11.0 62 17 7 14.5 100.99     LegendNANA
21:00 18.0 10.8 63 15 7 14.5 100.96     LegendNANA
22:00 17.6 11.1 66 15 9 14.5 100.93     LegendNANA
23:00 16.7 11.0 69 16 7 14.5 100.87     LegendNANA

Notes on Data Quality.

Legend

  • E = Estimated
  • M = Missing
  • NA = Not Available
  • ‡ = Partner data that is not subject to review by the National Climate Archives
Date modified: